Regional Weather Roundup
Issued by NWS

Home | Current Version | Previous Version | Graphics & Text | Print | Product List | Glossary On
Versions: 1 2 3 4 5 6 7 8 9 10 11 12 13 14 15 16 17 18 19 20 21 22 23 24 25 26 27 28 29 30 31 32 33 34 35 36 37 38 39 40 41 42 43 44 45 46 47 48 49 50
644
ASUS45 KBOU 032207
RWRCO

WEATHER ROUNDUP FOR COLORADO
NATIONAL WEATHER SERVICE DENVER/BOULDER CO
400 PM MDT TUE MAY 03 2016

NOTE: "FAIR" INDICATES FEW OR NO CLOUDS BELOW 12000 FEET WITH NO
SIGNIFICANT WEATHER AND/OR OBSTRUCTIONS TO VISIBILITY.

COZ001>005-013-030-031-032300-
...NORTHWEST COLORADO...

CITY           SKY/WX    TMP DP  RH WIND       PRES   REMARKS
CRAIG          FAIR      65  29  25 NW5       30.24F
HAYDEN         FAIR      64  27  24 W8G17     30.25F
MEEKER         FAIR      68  23  18 VRB6      30.23F
MOUNT WERNER   NOT AVBL
STEAMBOAT SPGS FAIR      62  26  24 SW6       30.24F
WALDEN         FAIR      55  21  26 W8        30.33F
$$

COZ006>008-011-032300-
...WEST CENTRAL VALLEYS...

CITY           SKY/WX    TMP DP  RH WIND       PRES   REMARKS
GRAND JUNCTION FAIR      71  29  21 VRB5      30.14F
MONTROSE       FAIR      69  23  17 VRB3      30.20F
EAGLE          SUNNY     66  18  15 SE7       30.23F
RIFLE          FAIR      72  27  18 VRB5      30.17F
DELTA          NOT AVBL
NUCLA          NOT AVBL
$$

COZ017>023-064>068-032300-
...SOUTHWEST COLORADO...

CITY           SKY/WX    TMP DP  RH WIND       PRES   REMARKS
DURANGO        FAIR      65  29  25 MISG      30.20F
CORTEZ         FAIR      70  34  26 S16G22    30.18F
PAGOSA SPRINGS FAIR      62  17  17 W6        30.24S
TELLURIDE      FAIR      57  19  23 N3        30.33S
WOLF CREEK PAS CLOUDY    41  10  28 NE5       30.47S
$$

COZ009-010-012-014-032>034-037-058>063-032300-
...CENTRAL COLORADO...

CITY           SKY/WX    TMP DP  RH WIND       PRES   REMARKS
ASPEN          FAIR      62  19  19 VRB3      30.25F
BUENA VISTA    FAIR      61   9  13 NE7       30.27F
COPPER MTN     NOT AVBL
BERTHOUD PASS  FAIR      32  23  69 MISG      30.49R
COTTONWOOD PAS FAIR      55   1  11 SE7       30.37S
GUNNISON       FAIR      61  16  17 CALM      30.27S
KREMMLING      FAIR      63   9  12 W6        30.27F
LEADVILLE      FAIR      50   6  16 NE10G21   30.35S
MONARCH PASS   FAIR      37  18  44 E16       30.55F
SALIDA         FAIR      64   9  11 N3        30.33S
SUNLIGHT       FAIR      46  19  34 NE3       30.46S
WILKERSON PASS FAIR      43  12  28 NE8       30.45F
$$

COZ069>075-032300-
...SAN LUIS VALLEY/SANGRE DE CRISTO MOUNTAINS...

CITY           SKY/WX    TMP DP  RH WIND       PRES   REMARKS
ALAMOSA        FAIR      61  17  18 VRB6      30.25F
LA VETA PASS   FAIR      45  25  45 N5        30.39S
SAGUACHE       FAIR      63  12  14 NE8       30.27F
$$

COZ035-036-038>040-032300-
...NORTHERN COLORADO FRONT RANGE...

CITY           SKY/WX    TMP DP  RH WIND       PRES   REMARKS
DENVER INTL AP FAIR      66  31  27 N16G23    30.21F
DMNS CITY PARK   N/A     66  26  22 N15G22    30.20F
AURORA         FAIR      65  28  25 N12G18    30.22F
FRONT RANGE AP MOSUNNY   64  30  27 N12G25    30.22S
ERIE MUNI ARPT FAIR      67  24  20 NE7G16    30.20F
BOULDER MUN AP FAIR      66  32  28 N7        30.20F
CENTENNIAL     FAIR      63  27  25 N14       30.23F
BROOMFIELD     MOSUNNY   64  28  25 N8        30.22R
FORT COLLINS   FAIR      68  34  28 N16       30.20S
LONGMONT       FAIR      70  31  23 NE5       30.21F
$$

COZ041-046-047-076>085-087-088-032300-
...PIKES PEAK/PALMER DIVIDE AND SOUTHERN FOOTHILLS...

CITY           SKY/WX    TMP DP  RH WIND       PRES   REMARKS
COLO. SPRINGS  FAIR      64  21  19 N18G25    30.24F
A. F. ACADEMY  FAIR      61  23  23 N18G26    30.24F
SCHRIEVER AFB  NOT AVBL
ELLICOTT       FAIR     N/A N/A N/A N21G35    30.21F
FALCON         FAIR      60  25  26 MISG      30.27F
FORT CARSON    FAIR      66  24  20 N17G28    30.21F
LIMON          FAIR      63  32  31 N23G29    30.18F
MONUMENT HILL  FAIR      55  28  35 N14G22    30.29S
TRINIDAD       FAIR      64  25  22 N18G24    30.21F
$$

COZ042>045-048>051-090-091-032300-
...NORTHEAST COLORADO...

CITY           SKY/WX    TMP DP  RH WIND       PRES   REMARKS
GREELEY ARPT   FAIR      68  36  30 NW10G18   30.18F
AKRON          FAIR      67  34  29 N21G29    30.14F
BURLINGTON     FAIR      66  29  24 N20       30.12F
WRAY           NOT AVBL
STERLING       FAIR      70  32  24 N16G25    30.10F
HOLYOKE        NOT AVBL
FORT MORGAN    FAIR      71  31  22 N14G25    30.15F
$$

COZ086-089-092>099-032300-
...SOUTHEAST COLORADO...

CITY           SKY/WX    TMP DP  RH WIND       PRES   REMARKS
PUEBLO         FAIR      72  24  16 N21       30.16F
LA JUNTA       FAIR      72  27  18 N24       30.14F
LAMAR          FAIR      71  31  22 N17G24    30.09F
SPRINGFIELD      N/A     66  32  28 N23G29    30.12F
$$




USA.gov is the U.S. government's official web portal to all federal, state and local government web resources and services.